Погода в Барабе

Россия / Курганская область     55°14′34″N   65°14′16″E
темп.,
°C
ветер,
м/с
пор.,
м/с
влажн.,
%
обл.,
%
осадки,
мм/ч
давл.,
гПа
погр.,
м
13 июня, вс
вс1323:00+15ююв336213 0.0 102440
02:00+13ююз226160 0.0 102414
05:00+13ю11656 0.0 102510
08:00+19ююз115068 0.0 1025283
11:00+23ю3440100 0.0 10251459
14:00+25ю34365 0.0 10242055
17:00+26юз23345 0.0 10242218
20:00+22ю01485 0.0 102311
14 июня, пн
пн1423:00+18юв225395 0.0 102413
02:00+16ю23585 0.0 102416
05:00+15ю33635 0.0 102542
08:00+21юз35545 0.0 1025316
11:00+25юз454194 0.0 1024913
14:00+28юз453190 0.0 10232416
17:00+28юз46315 0.0 10222443
20:00+24юз22515 0.0 102111
15 июня, вт
вт1523:00+19ююз33615 0.0 102120
02:00+18ююз33616 0.0 102038
05:00+17ююз346592 0.0 102062
08:00+22юз4756100 0.0 1020290
11:00+27зюз563999 0.0 10191036
14:00+29зюз6731100 0.0 10172580
17:00+29з5737100 0.0 10172504
20:00+24зюз335492 0.0 101531
16 июня, ср
ср1623:00+21юз3358100 0.0 101545
02:00+19зюз336370 0.0 101542
05:00+18зюз2274100 0.0 101616
08:00+23з236097 0.0 1016279
11:00+27з3347100 0.0 1016762
14:00+30з3535100 0.0 10142083
17:00+30зсз6835100 0.0 10132241
20:00+24ю596324 0.0 1013231
17 июня, чт
чт1723:00+18зсз1182100 1.4 101414
02:00+17юв4788100 0.8 1013104
05:00+16ю48865 0.8 1012146
08:00+22зюз34675 0.0 1011289
11:00+28з35465 0.0 10101212
14:00+30з45367 0.0 10092452
17:00+31зюз45345 0.0 10061926
20:00+27вюв224811 0.0 100512